Location: Hopville
(44.8032°N, 123.1329°W)
Time: 04:42:37
(UTC+00:00)

COSMO-SKYMED 1 - Pass Details

Date: 24 January 2021
Orbit: 621 x 623 km, 97.9° (Epoch: 26 February)

Event Time Altitude Azimuth Distance (km) Brightness Sun altitude
Rises 13:53:15 0° 184° (S) 2,890 6.1 -18.8°
Reaches altitude 10° 13:55:32 10° 192° (SSW) 1,989 5.1 -18.4°
Maximum altitude 13:59:37 40° 262° (W) 923 3.0 -17.7°
Enters shadow 14:00:50 33° 300° (WNW) 1,063 3.2 -17.5°
